Location: Baumgarten
(49.0970°N, 12.7493°E)
Time: 08:15:30
(UTC+00:00)

Cosmos 2278 Rocket - Pass Details

Date: 05 July 2020
Orbit: 841 x 846 km, 71.0° (Epoch: 04 August)

Event Time Altitude Azimuth Distance (km) Brightness Sun altitude
Rises 21:00:33 0° 332° (NNW) 3,417 7.5 -12.3°
Reaches altitude 10° 21:03:02 10° 335° (NNW) 2,478 6.1 -12.5°
Maximum altitude 21:08:43 68° 59° (ENE) 911 2.4 -13.0°
Enters shadow 21:12:56 18° 139° (SE) 1,942 3.5 -13.3°
